| time (UTC) | temp F | wind direction | speed MPH | gust MPH | rain 1hr in | rain 24hr in | rain mn in | humidity % | barometer mb |
| 20260510214033 | 67 | 28 | 1.0 | 1.0 | 0.00 | 0.01 | 0.01 | 46 | 1017.2 |
| 20260510213531 | 67 | 359 | 3.0 | 3.0 | 0.00 | 0.01 | 0.01 | 45 | 1017.0 |
| 20260510213026 | 67 | 15 | 3.0 | 3.0 | 0.00 | 0.01 | 0.01 | 45 | 1017.0 |
| 20260510212523 | 66 | 11 | 1.0 | 1.0 | 0.00 | 0.01 | 0.01 | 48 | 1016.9 |
| 20260510212020 | 67 | 16 | 5.0 | 7.0 | 0.00 | 0.01 | 0.01 | 47 | 1016.7 |
| 20260510211517 | 67 | 34 | 2.0 | 3.0 | 0.00 | 0.01 | 0.01 | 45 | 1016.8 |
| 20260510211012 | 67 | 25 | 4.0 | 6.0 | 0.00 | 0.01 | 0.01 | 44 | 1016.6 |
| 20260510210509 | 66 | 17 | 0.0 | 1.0 | 0.00 | 0.01 | 0.01 | 48 | 1016.8 |
| 20260510210009 | 67 | 20 | 4.0 | 6.0 | 0.00 | 0.01 | 0.01 | 46 | 1016.8 |
| 20260510205508 | 66 | 42 | 3.0 | 3.0 | 0.00 | 0.01 | 0.01 | 46 | 1016.8 |
| 20260510205004 | 67 | 37 | 5.0 | 8.0 | 0.00 | 0.01 | 0.01 | 44 | 1016.9 |
| 20260510204501 | 67 | 350 | 1.0 | 2.0 | 0.00 | 0.01 | 0.01 | 46 | 1016.8 |
| 20260510203957 | 68 | 23 | 4.0 | 5.0 | 0.00 | 0.01 | 0.01 | 46 | 1017.0 |
| 20260510203455 | 67 | 0 | 2.0 | 2.0 | 0.00 | 0.01 | 0.01 | 45 | 1017.1 |
| 20260510202949 | 66 | 8 | 3.0 | 3.0 | 0.00 | 0.01 | 0.01 | 44 | 1016.9 |
| 20260510202445 | 67 | 7 | 3.0 | 3.0 | 0.00 | 0.01 | 0.01 | 48 | 1017.0 |
| 20260510201942 | 68 | 353 | 3.0 | 6.0 | 0.00 | 0.01 | 0.01 | 46 | 1016.9 |
| 20260510201439 | 67 | 23 | 2.0 | 2.0 | 0.00 | 0.01 | 0.01 | 42 | 1017.0 |
| 20260510200935 | 68 | 12 | 3.0 | 5.0 | 0.00 | 0.01 | 0.01 | 42 | 1016.9 |
| 20260510200430 | 69 | 18 | 1.0 | 2.0 | 0.00 | 0.01 | 0.01 | 43 | 1016.9 |
| 20260510195924 | 69 | 6 | 1.0 | 1.0 | 0.00 | 0.01 | 0.01 | 44 | 1017.0 |
| 20260510195421 | 69 | 19 | 1.0 | 3.0 | 0.00 | 0.01 | 0.01 | 42 | 1017.0 |
| 20260510194916 | 69 | 3 | 1.0 | 1.0 | 0.00 | 0.01 | 0.01 | 44 | 1017.0 |
| 20260510194413 | 68 | 17 | 5.0 | 8.0 | 0.00 | 0.01 | 0.01 | 44 | 1017.0 |
| 20260510193909 | 68 | 6 | 2.0 | 2.0 | 0.00 | 0.01 | 0.01 | 45 | 1017.0 |
| 20260510193404 | 68 | 5 | 2.0 | 3.0 | 0.00 | 0.01 | 0.01 | 45 | 1017.0 |
| 20260510192900 | 69 | 4 | 0.0 | 1.0 | 0.00 | 0.01 | 0.01 | 41 | 1017.1 |
| 20260510192355 | 70 | 28 | 1.0 | 1.0 | 0.00 | 0.01 | 0.01 | 43 | 1017.0 |
| 20260510191851 | 70 | 346 | 2.0 | 3.0 | 0.00 | 0.01 | 0.01 | 44 | 1017.0 |
| 20260510191347 | 70 | 22 | 1.0 | 2.0 | 0.00 | 0.01 | 0.01 | 45 | 1017.0 |
| 20260510190845 | 69 | 2 | 1.0 | 1.0 | 0.00 | 0.01 | 0.01 | 50 | 1017.0 |
| 20260510190342 | 68 | 27 | 3.0 | 5.0 | 0.00 | 0.01 | 0.01 | 44 | 1017.1 |
| 20260510185838 | 69 | 16 | 2.0 | 3.0 | 0.00 | 0.01 | 0.01 | 46 | 1017.1 |
| 20260510185336 | 69 | 305 | 0.0 | 0.0 | 0.00 | 0.01 | 0.01 | 47 | 1016.9 |
| 20260510184833 | 69 | 45 | 3.0 | 3.0 | 0.00 | 0.01 | 0.01 | 46 | 1016.9 |
| 20260510184330 | 69 | 8 | 2.0 | 2.0 | 0.00 | 0.01 | 0.01 | 46 | 1017.0 |
| 20260510183830 | 69 | 203 | 2.0 | 2.0 | 0.00 | 0.01 | 0.01 | 44 | 1017.1 |
| 20260510183326 | 67 | 9 | 1.0 | 1.0 | 0.00 | 0.01 | 0.01 | 46 | 1017.1 |
| 20260510182822 | 68 | 19 | 3.0 | 3.0 | 0.00 | 0.01 | 0.01 | 45 | 1016.8 |
| 20260510182318 | 69 | 47 | 3.0 | 5.0 | 0.00 | 0.01 | 0.01 | 42 | 1016.9 |
| 20260510181814 | 68 | 8 | 1.0 | 1.0 | 0.00 | 0.01 | 0.01 | 46 | 1016.9 |
| 20260510181312 | 68 | 0 | 1.0 | 2.0 | 0.00 | 0.01 | 0.01 | 48 | 1017.0 |
| 20260510180808 | 67 | 42 | 7.0 | 8.0 | 0.00 | 0.01 | 0.01 | 44 | 1016.8 |
| 20260510180305 | 68 | 12 | 3.0 | 3.0 | 0.00 | 0.01 | 0.01 | 46 | 1017.0 |
| 20260510175802 | 68 | 2 | 1.0 | 1.0 | 0.00 | 0.01 | 0.01 | 41 | 1017.1 |
| 20260510175257 | 66 | 357 | 1.0 | 2.0 | 0.00 | 0.01 | 0.01 | 42 | 1016.8 |
| 20260510174754 | 67 | 63 | 3.0 | 6.0 | 0.00 | 0.01 | 0.01 | 45 | 1016.8 |
| 20260510174252 | 67 | 21 | 2.0 | 3.0 | 0.00 | 0.01 | 0.01 | 45 | 1016.6 |
| 20260510173748 | 66 | 335 | 2.0 | 3.0 | 0.00 | 0.01 | 0.01 | 47 | 1016.7 |
| 20260510173243 | 68 | 45 | 5.0 | 8.0 | 0.00 | 0.01 | 0.01 | 45 | 1016.4 |
| 20260510172739 | 66 | 25 | 0.0 | 0.0 | 0.00 | 0.01 | 0.01 | 54 | 1016.6 |
| 20260510172235 | 69 | 353 | 3.0 | 3.0 | 0.00 | 0.01 | 0.01 | 43 | 1016.8 |
| 20260510171732 | 69 | 335 | 1.0 | 2.0 | 0.00 | 0.01 | 0.01 | 40 | 1016.8 |
| 20260510171230 | 68 | 291 | 0.0 | 1.0 | 0.00 | 0.01 | 0.01 | 42 | 1016.8 |
| 20260510170727 | 67 | 51 | 3.0 | 5.0 | 0.00 | 0.01 | 0.01 | 46 | 1016.7 |
| 20260510170222 | 67 | 7 | 1.0 | 1.0 | 0.00 | 0.01 | 0.01 | 46 | 1016.8 |
| 20260510165718 | 68 | 6 | 1.0 | 1.0 | 0.00 | 0.01 | 0.01 | 45 | 1016.8 |
| 20260510165215 | 67 | 302 | 1.0 | 1.0 | 0.00 | 0.01 | 0.01 | 43 | 1016.9 |
| 20260510164712 | 66 | 353 | 1.0 | 1.0 | 0.00 | 0.01 | 0.01 | 50 | 1017.1 |
| 20260510164210 | 66 | 357 | 2.0 | 2.0 | 0.00 | 0.01 | 0.01 | 47 | 1016.8 |
| 20260510163704 | 66 | 1 | 1.0 | 1.0 | 0.00 | 0.01 | 0.01 | 48 | 1016.9 |
| 20260510163201 | 67 | 23 | 3.0 | 3.0 | 0.00 | 0.01 | 0.01 | 44 | 1017.0 |
| 20260510162700 | 67 | 37 | 1.0 | 1.0 | 0.00 | 0.01 | 0.01 | 48 | 1017.1 |
| 20260510162157 | 66 | 41 | 3.0 | 3.0 | 0.00 | 0.01 | 0.01 | 47 | 1016.9 |
| 20260510161653 | 65 | 353 | 4.0 | 6.0 | 0.00 | 0.01 | 0.01 | 50 | 1016.7 |
| 20260510161150 | 65 | 4 | 3.0 | 5.0 | 0.00 | 0.01 | 0.01 | 47 | 1017.0 |
| 20260510160647 | 66 | 23 | 3.0 | 5.0 | 0.00 | 0.01 | 0.01 | 48 | 1016.7 |
| 20260510160142 | 65 | 42 | 2.0 | 2.0 | 0.00 | 0.01 | 0.01 | 46 | 1016.8 |
| 20260510155638 | 65 | 48 | 3.0 | 5.0 | 0.00 | 0.01 | 0.01 | 46 | 1016.8 |
| 20260510155134 | 65 | 23 | 3.0 | 5.0 | 0.00 | 0.01 | 0.01 | 50 | 1016.7 |
| 20260510154630 | 64 | 6 | 5.0 | 6.0 | 0.00 | 0.01 | 0.01 | 48 | 1016.8 |
| 20260510154125 | 64 | 354 | 4.0 | 6.0 | 0.00 | 0.01 | 0.01 | 50 | 1016.7 |
| 20260510153621 | 65 | 4 | 0.0 | 1.0 | 0.00 | 0.01 | 0.01 | 52 | 1016.8 |
| 20260510153118 | 64 | 54 | 2.0 | 2.0 | 0.00 | 0.01 | 0.01 | 52 | 1016.6 |
| 20260510152614 | 63 | 15 | 1.0 | 1.0 | 0.00 | 0.01 | 0.01 | 50 | 1016.4 |
| 20260510152111 | 63 | 42 | 2.0 | 2.0 | 0.00 | 0.01 | 0.01 | 54 | 1016.7 |
| 20260510151607 | 63 | 39 | 5.0 | 7.0 | 0.00 | 0.01 | 0.01 | 52 | 1016.6 |
| 20260510151106 | 62 | 3 | 4.0 | 5.0 | 0.00 | 0.01 | 0.01 | 54 | 1016.2 |
| 20260510150600 | 62 | 17 | 4.0 | 5.0 | 0.00 | 0.01 | 0.01 | 56 | 1016.2 |
| 20260510150055 | 62 | 4 | 2.0 | 2.0 | 0.00 | 0.01 | 0.01 | 56 | 1016.1 |
| 20260510145553 | 61 | 39 | 4.0 | 5.0 | 0.00 | 0.01 | 0.01 | 57 | 1016.0 |
| 20260510145049 | 60 | 17 | 1.0 | 1.0 | 0.00 | 0.01 | 0.01 | 57 | 1016.0 |
| 20260510144546 | 60 | 12 | 4.0 | 6.0 | 0.00 | 0.01 | 0.01 | 56 | 1016.0 |
| 20260510144042 | 59 | 20 | 0.0 | 1.0 | 0.00 | 0.01 | 0.01 | 58 | 1015.9 |
| 20260510143537 | 59 | 1 | 3.0 | 3.0 | 0.00 | 0.01 | 0.01 | 57 | 1015.8 |
| 20260510143034 | 59 | 26 | 2.0 | 2.0 | 0.00 | 0.01 | 0.01 | 58 | 1015.7 |
| 20260510142530 | 59 | 19 | 2.0 | 2.0 | 0.00 | 0.01 | 0.01 | 57 | 1015.5 |
| 20260510142027 | 60 | 14 | 3.0 | 3.0 | 0.00 | 0.01 | 0.01 | 59 | 1015.4 |
| 20260510141524 | 59 | 348 | 3.0 | 5.0 | 0.00 | 0.01 | 0.01 | 61 | 1015.3 |
| 20260510141022 | 60 | 30 | 3.0 | 5.0 | 0.00 | 0.01 | 0.01 | 62 | 1015.4 |
| 20260510140517 | 60 | 350 | 4.0 | 6.0 | 0.00 | 0.01 | 0.01 | 63 | 1015.3 |
| 20260510140012 | 60 | 26 | 2.0 | 3.0 | 0.00 | 0.01 | 0.01 | 63 | 1015.6 |
| 20260510135507 | 59 | 32 | 2.0 | 2.0 | 0.00 | 0.01 | 0.01 | 64 | 1015.4 |
| 20260510135004 | 59 | 22 | 1.0 | 1.0 | 0.00 | 0.01 | 0.01 | 66 | 1015.3 |
| 20260510134502 | 59 | 2 | 3.0 | 3.0 | 0.00 | 0.01 | 0.01 | 69 | 1015.3 |
| 20260510133958 | 58 | 29 | 1.0 | 2.0 | 0.00 | 0.01 | 0.01 | 71 | 1015.3 |
| 20260510133454 | 57 | 9 | 1.0 | 2.0 | 0.00 | 0.01 | 0.01 | 71 | 1015.2 |
| 20260510132949 | 57 | 9 | 1.0 | 2.0 | 0.00 | 0.01 | 0.01 | 72 | 1015.3 |
| 20260510132447 | 58 | 22 | 1.0 | 1.0 | 0.00 | 0.01 | 0.01 | 73 | 1015.1 |
| 20260510131944 | 58 | 4 | 2.0 | 2.0 | 0.00 | 0.01 | 0.01 | 72 | 1015.1 |
| 20260510131442 | 58 | 4 | 1.0 | 1.0 | 0.00 | 0.01 | 0.01 | 73 | 1014.9 |
| 20260510130938 | 57 | 354 | 3.0 | 3.0 | 0.00 | 0.01 | 0.01 | 74 | 1014.9 |
| 20260510130435 | 57 | 358 | 1.0 | 1.0 | 0.00 | 0.01 | 0.01 | 77 | 1014.7 |
| 20260510125932 | 57 | 33 | 3.0 | 3.0 | 0.00 | 0.01 | 0.01 | 78 | 1014.8 |
| 20260510125428 | 56 | 355 | 1.0 | 1.0 | 0.00 | 0.01 | 0.01 | 79 | 1014.7 |
| 20260510124925 | 56 | 31 | 1.0 | 2.0 | 0.00 | 0.01 | 0.01 | 78 | 1014.7 |
| 20260510124421 | 56 | 344 | 3.0 | 3.0 | 0.00 | 0.01 | 0.01 | 78 | 1014.9 |
| 20260510123918 | 56 | 48 | 2.0 | 2.0 | 0.00 | 0.01 | 0.01 | 79 | 1014.7 |
| 20260510123414 | 56 | 36 | 1.0 | 2.0 | 0.00 | 0.01 | 0.01 | 80 | 1014.5 |
| 20260510122910 | 56 | 22 | 1.0 | 1.0 | 0.00 | 0.01 | 0.01 | 80 | 1014.7 |
| 20260510122405 | 55 | 20 | 0.0 | 0.0 | 0.00 | 0.01 | 0.01 | 82 | 1014.5 |
| 20260510121902 | 55 | 10 | 1.0 | 1.0 | 0.00 | 0.01 | 0.01 | 83 | 1014.6 |
| 20260510121359 | 54 | 25 | 1.0 | 1.0 | 0.00 | 0.01 | 0.01 | 82 | 1014.3 |
| 20260510120856 | 54 | 22 | 1.0 | 1.0 | 0.05 | 0.01 | 0.01 | 82 | 1014.2 |
| 20260510120354 | 54 | 15 | 0.0 | 1.0 | 0.05 | 0.01 | 0.01 | 81 | 1014.3 |
| 20260510115849 | 55 | 8 | 0.0 | 1.0 | 0.00 | 0.00 | 0.00 | 80 | 1014.1 |
| 20260510115346 | 55 | 12 | 2.0 | 2.0 | 0.00 | 0.00 | 0.00 | 79 | 1014.0 |
| 20260510114842 | 55 | 15 | 0.0 | 1.0 | 0.00 | 0.00 | 0.00 | 77 | 1013.9 |
| 20260510114340 | 55 | 32 | 1.0 | 1.0 | 0.00 | 0.00 | 0.00 | 76 | 1013.7 |
| 20260510113839 | 55 | 18 | 1.0 | 2.0 | 0.00 | 0.00 | 0.00 | 77 | 1013.8 |
| 20260510113336 | 55 | 21 | 1.0 | 1.0 | 0.00 | 0.00 | 0.00 | 77 | 1013.6 |
| 20260510112833 | 55 | 23 | 1.0 | 1.0 | 0.00 | 0.00 | 0.00 | 77 | 1013.7 |
| 20260510112330 | 56 | 1 | 1.0 | 2.0 | 0.00 | 0.00 | 0.00 | 77 | 1013.6 |
| 20260510111826 | 56 | 357 | 1.0 | 1.0 | 0.00 | 0.00 | 0.00 | 75 | 1013.5 |
| 20260510111323 | 56 | 15 | 0.0 | 1.0 | 0.00 | 0.00 | 0.00 | 74 | 1013.3 |
| 20260510110822 | 56 | 4 | 1.0 | 2.0 | 0.00 | 0.00 | 0.00 | 73 | 1013.3 |
| 20260510110320 | 56 | 25 | 2.0 | 2.0 | 0.00 | 0.00 | 0.00 | 74 | 1013.3 |
| 20260510105816 | 56 | 10 | 0.0 | 1.0 | 0.00 | 0.00 | 0.00 | 75 | 1013.3 |
| 20260510105310 | 56 | 6 | 1.0 | 1.0 | 0.00 | 0.00 | 0.00 | 75 | 1013.3 |
| 20260510104807 | 56 | 354 | 0.0 | 0.0 | 0.00 | 0.00 | 0.00 | 75 | 1013.2 |
| 20260510104305 | 56 | 8 | 0.0 | 1.0 | 0.00 | 0.00 | 0.00 | 75 | 1013.1 |
| 20260510103801 | 56 | 358 | 1.0 | 2.0 | 0.00 | 0.00 | 0.00 | 75 | 1012.9 |
| 20260510103257 | 56 | 5 | 0.0 | 1.0 | 0.00 | 0.00 | 0.00 | 76 | 1012.9 |
| 20260510102752 | 57 | 358 | 0.0 | 0.0 | 0.00 | 0.00 | 0.00 | 76 | 1012.9 |
| 20260510102248 | 56 | 5 | 1.0 | 1.0 | 0.00 | 0.00 | 0.00 | 77 | 1012.4 |
| 20260510101746 | 57 | 7 | 0.0 | 1.0 | 0.00 | 0.00 | 0.00 | 77 | 1012.5 |
| 20260510101244 | 57 | 352 | 0.0 | 1.0 | 0.00 | 0.00 | 0.00 | 78 | 1012.2 |
| 20260510100739 | 56 | 8 | 0.0 | 0.0 | 0.00 | 0.00 | 0.00 | 80 | 1012.3 |
| 20260510100238 | 57 | 9 | 0.0 | 0.0 | 0.00 | 0.00 | 0.00 | 80 | 1012.0 |
| 20260510095733 | 57 | 356 | 1.0 | 1.0 | 0.00 | 0.00 | 0.00 | 80 | 1012.0 |
| 20260510095228 | 57 | 1 | 1.0 | 1.0 | 0.00 | 0.00 | 0.00 | 80 | 1011.9 |
| 20260510094727 | 57 | 5 | 0.0 | 1.0 | 0.00 | 0.00 | 0.00 | 81 | 1011.9 |
| 20260510094223 | 57 | 6 | 0.0 | 0.0 | 0.00 | 0.00 | 0.00 | 81 | 1011.8 |
| 20260510093719 | 57 | 5 | 0.0 | 1.0 | 0.00 | 0.00 | 0.00 | 81 | 1011.7 |
| 20260510093217 | 57 | 346 | 0.0 | 1.0 | 0.00 | 0.00 | 0.00 | 84 | 1011.7 |
| 20260510092713 | 56 | 354 | 0.0 | 1.0 | 0.00 | 0.00 | 0.00 | 87 | 1011.7 |
| 20260510092208 | 56 | 356 | 0.0 | 0.0 | 0.00 | 0.00 | 0.00 | 89 | 1011.7 |
| 20260510091704 | 56 | 3 | 0.0 | 0.0 | 0.00 | 0.00 | 0.00 | 89 | 1011.6 |
| 20260510091201 | 56 | 19 | 0.0 | 1.0 | 0.00 | 0.00 | 0.00 | 90 | 1011.3 |
| 20260510090657 | 56 | 358 | 0.0 | 0.0 | 0.00 | 0.00 | 0.00 | 90 | 1011.1 |
| 20260510090154 | 56 | 11 | 0.0 | 0.0 | 0.00 | 0.00 | 0.00 | 91 | 1011.2 |
| 20260510085649 | 56 | 5 | 0.0 | 1.0 | 0.00 | 0.00 | 0.00 | 91 | 1011.1 |
| 20260510085144 | 56 | 356 | 0.0 | 0.0 | 0.00 | 0.00 | 0.00 | 91 | 1011.0 |
| 20260510084641 | 56 | 18 | 0.0 | 0.0 | 0.00 | 0.00 | 0.00 | 91 | 1010.8 |
| 20260510084138 | 56 | 8 | 0.0 | 0.0 | 0.00 | 0.00 | 0.00 | 91 | 1011.0 |
| 20260510083634 | 57 | 17 | 0.0 | 1.0 | 0.00 | 0.00 | 0.00 | 90 | 1010.9 |
| 20260510083131 | 57 | 10 | 0.0 | 0.0 | 0.00 | 0.00 | 0.00 | 89 | 1010.3 |
| 20260510082627 | 57 | 11 | 0.0 | 0.0 | 0.00 | 0.00 | 0.00 | 88 | 1010.5 |
| 20260510082123 | 57 | 354 | 0.0 | 1.0 | 0.00 | 0.00 | 0.00 | 88 | 1010.5 |
| 20260510081618 | 58 | 13 | 0.0 | 0.0 | 0.00 | 0.00 | 0.00 | 88 | 1010.7 |
| 20260510081114 | 58 | 113 | 0.0 | 0.0 | 0.00 | 0.00 | 0.00 | 87 | 1010.5 |
| 20260510080613 | 58 | 113 | 0.0 | 0.0 | 0.00 | 0.00 | 0.00 | 86 | 1010.2 |
| 20260510080111 | 58 | 101 | 0.0 | 0.0 | 0.00 | 0.00 | 0.00 | 86 | 1010.2 |
| 20260510075608 | 58 | 101 | 0.0 | 0.0 | 0.00 | 0.00 | 0.00 | 86 | 1010.4 |
| 20260510075105 | 59 | 101 | 0.0 | 0.0 | 0.00 | 0.00 | 0.00 | 85 | 1010.1 |
| 20260510074602 | 59 | 101 | 1.0 | 1.0 | 0.00 | 0.00 | 0.00 | 84 | 1010.0 |
| 20260510074057 | 59 | 101 | 1.0 | 1.0 | 0.00 | 0.00 | 0.00 | 84 | 1010.0 |
| 20260510073553 | 59 | 356 | 0.0 | 1.0 | 0.00 | 0.00 | 0.00 | 83 | 1009.9 |
| 20260510073051 | 60 | 17 | 0.0 | 0.0 | 0.00 | 0.00 | 0.00 | 82 | 1009.8 |
| 20260510072547 | 60 | 7 | 0.0 | 1.0 | 0.00 | 0.00 | 0.00 | 80 | 1009.9 |
| 20260510072043 | 60 | 36 | 0.0 | 0.0 | 0.00 | 0.00 | 0.00 | 81 | 1009.9 |
| 20260510071539 | 60 | 327 | 2.0 | 2.0 | 0.00 | 0.00 | 0.00 | 83 | 1009.8 |
| 20260510071037 | 60 | 39 | 2.0 | 3.0 | 0.00 | 0.00 | 0.00 | 84 | 1010.1 |
| 20260510070534 | 60 | 26 | 0.0 | 0.0 | 0.00 | 0.00 | 0.00 | 85 | 1009.8 |
| 20260510070031 | 60 | 42 | 1.0 | 1.0 | 0.00 | 0.00 | 0.00 | 85 | 1010.2 |
| 20260510065527 | 60 | 144 | 1.0 | 1.0 | 0.00 | 0.00 | 0.00 | 85 | 1010.3 |
| 20260510065023 | 60 | 54 | 0.0 | 1.0 | 0.00 | 0.00 | 0.00 | 84 | 1010.5 |
| 20260510064520 | 60 | 24 | 0.0 | 1.0 | 0.00 | 0.00 | 0.00 | 84 | 1010.3 |
| 20260510064017 | 60 | 29 | 0.0 | 0.0 | 0.00 | 0.00 | 0.00 | 84 | 1010.0 |
| 20260510063514 | 60 | 37 | 0.0 | 1.0 | 0.00 | 0.00 | 0.00 | 84 | 1010.3 |
| 20260510063011 | 60 | 33 | 0.0 | 0.0 | 0.00 | 0.00 | 0.00 | 85 | 1010.3 |
| 20260510062506 | 60 | 50 | 0.0 | 1.0 | 0.00 | 0.00 | 0.00 | 84 | 1010.1 |
| 20260510062002 | 61 | 35 | 0.0 | 0.0 | 0.00 | 0.00 | 0.00 | 82 | 1010.4 |
| 20260510061459 | 62 | 358 | 0.0 | 0.0 | 0.00 | 0.00 | 0.00 | 80 | 1010.2 |
| 20260510060955 | 62 | 15 | 0.0 | 0.0 | 0.00 | 0.00 | 0.00 | 78 | 1009.9 |
| 20260510060452 | 62 | 29 | 1.0 | 1.0 | 0.00 | 0.00 | 0.00 | 78 | 1010.3 |
| 20260510055948 | 62 | 57 | 0.0 | 1.0 | 0.00 | 0.00 | 0.00 | 77 | 1010.3 |
| 20260510055444 | 62 | 1 | 1.0 | 1.0 | 0.00 | 0.00 | 0.00 | 77 | 1010.3 |
| 20260510054942 | 62 | 200 | 1.0 | 2.0 | 0.00 | 0.00 | 0.00 | 76 | 1010.6 |
| 20260510054437 | 62 | 352 | 1.0 | 1.0 | 0.00 | 0.00 | 0.00 | 76 | 1010.4 |
| 20260510053932 | 62 | 48 | 0.0 | 1.0 | 0.00 | 0.00 | 0.00 | 77 | 1010.5 |
| 20260510053428 | 61 | 13 | 1.0 | 1.0 | 0.00 | 0.00 | 0.00 | 78 | 1010.5 |
| 20260510052925 | 61 | 285 | 1.0 | 1.0 | 0.00 | 0.00 | 0.00 | 78 | 1010.5 |
| 20260510052420 | 61 | 22 | 0.0 | 0.0 | 0.00 | 0.00 | 0.00 | 79 | 1010.3 |
| 20260510051917 | 61 | 15 | 0.0 | 1.0 | 0.00 | 0.00 | 0.00 | 79 | 1010.2 |
| 20260510051414 | 61 | 28 | 0.0 | 0.0 | 0.00 | 0.00 | 0.00 | 79 | 1010.1 |
| 20260510050910 | 61 | 357 | 0.0 | 0.0 | 0.00 | 0.00 | 0.00 | 79 | 1010.0 |
| 20260510050407 | 61 | 309 | 0.0 | 1.0 | 0.00 | 0.00 | 0.00 | 79 | 1009.7 |
| 20260510045904 | 61 | 346 | 1.0 | 1.0 | 0.00 | 0.00 | 0.00 | 78 | 1009.8 |
| 20260510045401 | 61 | 57 | 1.0 | 1.0 | 0.00 | 0.00 | 0.00 | 78 | 1009.8 |
| 20260510044858 | 61 | 19 | 0.0 | 1.0 | 0.00 | 0.00 | 0.00 | 77 | 1009.8 |
| 20260510044354 | 61 | 178 | 1.0 | 2.0 | 0.00 | 0.00 | 0.00 | 77 | 1009.8 |
| 20260510043851 | 61 | 346 | 0.0 | 0.0 | 0.00 | 0.00 | 0.00 | 77 | 1009.6 |
| 20260510043347 | 61 | 24 | 0.0 | 0.0 | 0.00 | 0.00 | 0.00 | 77 | 1009.5 |
| 20260510042845 | 61 | 306 | 1.0 | 1.0 | 0.00 | 0.00 | 0.00 | 77 | 1009.6 |
| 20260510042341 | 61 | 204 | 1.0 | 1.0 | 0.00 | 0.00 | 0.00 | 77 | 1009.5 |
| 20260510041837 | 61 | 74 | 1.0 | 1.0 | 0.00 | 0.00 | 0.00 | 77 | 1009.6 |
| 20260510041334 | 61 | 350 | 1.0 | 2.0 | 0.00 | 0.00 | 0.00 | 78 | 1009.4 |
| 20260510040832 | 61 | 8 | 0.0 | 1.0 | 0.00 | 0.00 | 0.00 | 78 | 1009.4 |
| 20260510040328 | 61 | 47 | 0.0 | 0.0 | 0.00 | 0.00 | 0.00 | 78 | 1009.3 |
| 20260510035824 | 61 | 166 | 0.0 | 1.0 | 0.00 | 0.26 | 0.26 | 77 | 1009.6 |
| 20260510035320 | 61 | 6 | 1.0 | 1.0 | 0.00 | 0.26 | 0.26 | 76 | 1009.8 |
| 20260510034816 | 61 | 160 | 1.0 | 1.0 | 0.00 | 0.26 | 0.26 | 76 | 1009.5 |
| 20260510034314 | 62 | 23 | 0.0 | 1.0 | 0.00 | 0.26 | 0.26 | 76 | 1009.6 |
| 20260510033810 | 62 | 5 | 0.0 | 0.0 | 0.00 | 0.26 | 0.26 | 75 | 1009.5 |
| 20260510033307 | 62 | 22 | 0.0 | 0.0 | 0.00 | 0.26 | 0.26 | 75 | 1009.4 |
| 20260510032804 | 62 | 207 | 2.0 | 2.0 | 0.00 | 0.26 | 0.26 | 74 | 1009.5 |
| 20260510032300 | 62 | 24 | 0.0 | 0.0 | 0.00 | 0.26 | 0.26 | 75 | 1009.5 |
| 20260510031755 | 62 | 24 | 0.0 | 0.0 | 0.00 | 0.26 | 0.26 | 74 | 1009.1 |
| 20260510031251 | 63 | 3 | 0.0 | 0.0 | 0.00 | 0.26 | 0.26 | 74 | 1009.2 |
| 20260510030745 | 63 | 17 | 0.0 | 0.0 | 0.00 | 0.26 | 0.26 | 73 | 1009.2 |
| 20260510030243 | 63 | 30 | 0.0 | 0.0 | 0.00 | 0.26 | 0.26 | 74 | 1009.0 |
| 20260510025740 | 63 | 19 | 0.0 | 0.0 | 0.00 | 0.26 | 0.26 | 74 | 1009.1 |
| 20260510025238 | 63 | 177 | 1.0 | 2.0 | 0.00 | 0.26 | 0.26 | 73 | 1009.4 |
| 20260510024734 | 63 | 197 | 1.0 | 2.0 | 0.00 | 0.26 | 0.26 | 73 | 1009.3 |
| 20260510024230 | 63 | 216 | 0.0 | 0.0 | 0.00 | 0.26 | 0.26 | 73 | 1009.1 |
| 20260510023726 | 63 | 39 | 0.0 | 0.0 | 0.00 | 0.26 | 0.26 | 73 | 1009.0 |
| 20260510023224 | 63 | 124 | 1.0 | 2.0 | 0.00 | 0.26 | 0.26 | 72 | 1009.1 |
| 20260510022720 | 63 | 214 | 1.0 | 1.0 | 0.00 | 0.26 | 0.26 | 72 | 1008.9 |
| 20260510022220 | 63 | 176 | 1.0 | 1.0 | 0.00 | 0.26 | 0.26 | 72 | 1008.7 |
| 20260510021715 | 64 | 152 | 0.0 | 1.0 | 0.00 | 0.26 | 0.26 | 71 | 1008.9 |
| 20260510021212 | 64 | 23 | 0.0 | 0.0 | 0.00 | 0.26 | 0.26 | 71 | 1008.8 |
| 20260510020708 | 64 | 168 | 0.0 | 1.0 | 0.00 | 0.26 | 0.26 | 70 | 1008.8 |
| 20260510020203 | 64 | 158 | 0.0 | 1.0 | 0.00 | 0.26 | 0.26 | 70 | 1008.7 |
| 20260510015659 | 64 | 5 | 0.0 | 0.0 | 0.00 | 0.26 | 0.26 | 70 | 1008.6 |
| 20260510015155 | 64 | 109 | 1.0 | 1.0 | 0.00 | 0.26 | 0.26 | 70 | 1008.6 |
| 20260510014650 | 64 | 106 | 0.0 | 0.0 | 0.00 | 0.26 | 0.26 | 70 | 1008.6 |
| 20260510014148 | 64 | 80 | 0.0 | 1.0 | 0.00 | 0.26 | 0.26 | 69 | 1008.6 |
| 20260510013643 | 64 | 185 | 2.0 | 3.0 | 0.00 | 0.26 | 0.26 | 69 | 1008.5 |
| 20260510013139 | 65 | 166 | 0.0 | 0.0 | 0.00 | 0.26 | 0.26 | 68 | 1008.3 |
| 20260510012638 | 65 | 160 | 0.0 | 1.0 | 0.00 | 0.26 | 0.26 | 68 | 1008.1 |
| 20260510012134 | 65 | 40 | 0.0 | 1.0 | 0.00 | 0.26 | 0.26 | 67 | 1008.0 |
| 20260510011629 | 65 | 86 | 0.0 | 1.0 | 0.00 | 0.26 | 0.26 | 68 | 1008.1 |
| 20260510011125 | 65 | 173 | 0.0 | 0.0 | 0.00 | 0.26 | 0.26 | 68 | 1008.0 |
| 20260510010621 | 66 | 181 | 1.0 | 2.0 | 0.00 | 0.26 | 0.26 | 67 | 1007.9 |
| 20260510010119 | 66 | 318 | 0.0 | 0.0 | 0.00 | 0.26 | 0.26 | 67 | 1007.6 |
| 20260510005614 | 66 | 46 | 0.0 | 1.0 | 0.00 | 0.26 | 0.26 | 66 | 1008.0 |
| 20260510005112 | 66 | 27 | 0.0 | 0.0 | 0.00 | 0.26 | 0.26 | 66 | 1007.8 |
| 20260510004609 | 66 | 313 | 0.0 | 0.0 | 0.00 | 0.26 | 0.26 | 66 | 1007.9 |
| 20260510004107 | 67 | 141 | 1.0 | 1.0 | 0.00 | 0.26 | 0.26 | 65 | 1007.8 |
| 20260510003604 | 67 | 304 | 0.0 | 1.0 | 0.00 | 0.26 | 0.26 | 64 | 1007.6 |
| 20260510003100 | 68 | 359 | 1.0 | 1.0 | 0.00 | 0.26 | 0.26 | 64 | 1007.8 |
| 20260510002554 | 68 | 72 | 1.0 | 1.0 | 0.00 | 0.26 | 0.26 | 63 | 1007.5 |
| 20260510002052 | 68 | 214 | 1.0 | 2.0 | 0.00 | 0.26 | 0.26 | 62 | 1007.4 |
| 20260510001549 | 68 | 202 | 2.0 | 2.0 | 0.00 | 0.26 | 0.26 | 62 | 1007.3 |
| 20260510001048 | 69 | 197 | 0.0 | 0.0 | 0.00 | 0.26 | 0.26 | 61 | 1007.2 |
| 20260510000542 | 69 | 91 | 1.0 | 1.0 | 0.00 | 0.26 | 0.26 | 60 | 1007.2 |
| 20260510000039 | 69 | 353 | 1.0 | 1.0 | 0.00 | 0.26 | 0.26 | 60 | 1007.2 |
| 20260509235536 | 69 | 193 | 1.0 | 2.0 | 0.00 | 0.26 | 0.26 | 59 | 1007.2 |
| 20260509235033 | 70 | 184 | 1.0 | 1.0 | 0.00 | 0.26 | 0.26 | 59 | 1007.0 |
| 20260509234529 | 70 | 147 | 2.0 | 2.0 | 0.00 | 0.26 | 0.26 | 59 | 1007.1 |
| 20260509234027 | 70 | 184 | 3.0 | 3.0 | 0.00 | 0.26 | 0.26 | 57 | 1007.1 |
| 20260509233524 | 71 | 115 | 1.0 | 1.0 | 0.00 | 0.26 | 0.26 | 57 | 1007.1 |
| 20260509233021 | 71 | 188 | 2.0 | 2.0 | 0.00 | 0.26 | 0.26 | 56 | 1007.0 |
| 20260509232518 | 71 | 148 | 1.0 | 2.0 | 0.00 | 0.26 | 0.26 | 56 | 1007.2 |
| 20260509232015 | 71 | 140 | 1.0 | 1.0 | 0.00 | 0.26 | 0.26 | 56 | 1006.8 |
| 20260509231511 | 71 | 185 | 1.0 | 2.0 | 0.00 | 0.26 | 0.26 | 55 | 1006.8 |
| 20260509231009 | 71 | 175 | 3.0 | 7.0 | 0.00 | 0.26 | 0.26 | 54 | 1007.1 |
| 20260509230505 | 72 | 202 | 1.0 | 2.0 | 0.00 | 0.26 | 0.26 | 55 | 1006.9 |
| 20260509230002 | 72 | 47 | 1.0 | 1.0 | 0.00 | 0.26 | 0.26 | 55 | 1006.8 |
| 20260509225458 | 72 | 216 | 1.0 | 2.0 | 0.00 | 0.26 | 0.26 | 54 | 1006.8 |
| 20260509224954 | 72 | 167 | 3.0 | 5.0 | 0.00 | 0.26 | 0.26 | 54 | 1006.8 |
| 20260509224449 | 72 | 81 | 4.0 | 7.0 | 0.00 | 0.26 | 0.26 | 53 | 1006.8 |
| 20260509223946 | 72 | 178 | 2.0 | 2.0 | 0.00 | 0.26 | 0.26 | 54 | 1006.8 |
| 20260509223443 | 72 | 83 | 1.0 | 1.0 | 0.00 | 0.26 | 0.26 | 53 | 1006.8 |
| 20260509222941 | 73 | 109 | 3.0 | 3.0 | 0.00 | 0.26 | 0.26 | 55 | 1006.9 |
| 20260509222436 | 73 | 107 | 1.0 | 1.0 | 0.00 | 0.26 | 0.26 | 56 | 1006.5 |
| 20260509221932 | 73 | 168 | 2.0 | 2.0 | 0.00 | 0.26 | 0.26 | 56 | 1006.5 |
| 20260509221429 | 73 | 195 | 3.0 | 5.0 | 0.00 | 0.26 | 0.26 | 54 | 1006.5 |
| 20260509220924 | 73 | 213 | 3.0 | 3.0 | 0.00 | 0.26 | 0.26 | 52 | 1006.6 |
| 20260509220420 | 73 | 150 | 2.0 | 3.0 | 0.00 | 0.26 | 0.26 | 53 | 1006.8 |
| 20260509215917 | 73 | 170 | 3.0 | 3.0 | 0.00 | 0.26 | 0.26 | 53 | 1006.7 |
| 20260509215412 | 72 | 96 | 2.0 | 2.0 | 0.00 | 0.26 | 0.26 | 54 | 1006.9 |
| 20260509214910 | 73 | 212 | 3.0 | 5.0 | 0.00 | 0.26 | 0.26 | 53 | 1006.9 |
| 20260509214407 | 73 | 126 | 2.0 | 2.0 | 0.00 | 0.26 | 0.26 | 56 | 1006.8 |